This demonstration page uses our WeatherBlox Daily Observations layout. Learn more.

Left ArrowRight Arrow

Hourly Observations for October 10, 2016

Temp ( °F °C ) Dew Point ( °F °C ) Humidity (%) Winds ( mph kmh ) Pressure ( in mb ) Visibility ( mi km ) Precip ( " mm )
12:17 am 00:17 Mostly Cloudy 52 11 45 7 77 77 ESE 3 6 30.33 1027 0.75 1.207005 N/A
12:36 am 00:36 Mostly Cloudy 50 10 43 6 76 76 ESE 5 7 30.33 1027 0.5 0.80467 N/A
12:56 am 00:56 Mostly Cloudy 50 10 43 6 76 76 ESE 5 7 30.33 1027 0.5 0.80467 N/A
1:17 am 01:17 Mostly Cloudy 50 10 43 6 76 76 ESE 5 7 30.33 1027 0.5 0.80467 N/A
1:36 am 01:36 Mostly Cloudy 50 10 43 6 76 76 ESE 5 7 30.33 1027 0.5 0.80467 N/A
1:56 am 01:56 Mostly Cloudy 50 10 43 6 76 76 SE 6 9 30.33 1027 1.5 2.41401 N/A
2:17 am 02:17 Mostly Cloudy 52 11 43 6 72 72 SE 6 9 30.33 1027 1 1.60934 N/A
2:36 am 02:36 Mostly Cloudy 50 10 43 6 76 76 SE 6 9 30.33 1027 1.5 2.41401 N/A
2:56 am 02:56 Mostly Cloudy 50 10 43 6 76 76 SE 6 9 30.33 1027 1.25 2.011675 N/A
3:17 am 03:17 Mostly Cloudy 50 10 43 6 76 76 SE 7 11 30.33 1027 0.75 1.207005 N/A
3:36 am 03:36 Mostly Cloudy 50 10 43 6 76 76 ESE 8 13 30.33 1027 0.75 1.207005 N/A
3:56 am 03:56 Mostly Cloudy 50 10 43 6 76 76 SE 8 13 30.33 1027 0.75 1.207005 N/A
4:17 am 04:17 Mostly Cloudy 50 10 43 6 76 76 SE 7 11 30.33 1027 1 1.60934 N/A
4:36 am 04:36 Mostly Cloudy 50 10 43 6 76 76 SE 8 13 30.33 1027 1.25 2.011675 N/A
4:56 am 04:56 Mostly Cloudy 48 9 43 6 82 82 SE 7 11 30.33 1027 1.25 2.011675 N/A
5:17 am 05:17 Clear 48 9 43 6 82 82 SSE 5 7 30.36 1028 2 3.21868 N/A
5:36 am 05:36 Clear 48 9 43 6 82 82 SE 7 11 30.36 1028 2.5 4.02335 N/A
5:56 am 05:56 Mostly Cloudy 46 8 43 6 87 87 SE 6 9 30.36 1028 1.5 2.41401 N/A
6:17 am 06:17 Clear 46 8 41 5 82 82 SSE 6 9 30.36 1028 2.5 4.02335 N/A
6:36 am 06:36 Clear 46 8 41 5 82 82 SSE 6 9 30.36 1028 2.5 4.02335 N/A
6:56 am 06:56 Clear 46 8 41 5 82 82 SE 7 11 30.36 1028 2 3.21868 N/A
7:17 am 07:17 Mostly Cloudy 46 8 41 5 82 82 SE 6 9 30.39 1029 1.75 2.816345 N/A
7:36 am 07:36 Clear 46 8 41 5 82 82 SSE 7 11 30.39 1029 3 4.82802 N/A
7:56 am 07:56 Sunny 46 8 41 5 82 82 SSE 6 9 30.39 1029 3 4.82802 N/A
8:17 am 08:17 Mostly Cloudy 46 8 41 5 82 82 SE 7 11 30.39 1029 1.5 2.41401 N/A
8:36 am 08:36 Sunny 48 9 41 5 76 76 SSE 9 15 30.39 1029 10 16.0934 N/A
8:56 am 08:56 Sunny 50 10 41 5 71 71 SSE 9 15 30.39 1029 10 16.0934 N/A
9:17 am 09:17 Sunny 52 11 43 6 72 72 SSE 9 15 30.39 1029 10 16.0934 N/A
9:36 am 09:36 Sunny 54 12 43 6 67 67 SSE 10 17 30.39 1029 10 16.0934 N/A
9:57 am 09:57 Sunny 54 12 43 6 67 67 SSE 12 19 30.39 1029 10 16.0934 N/A
10:16 am 10:16 Sunny 55 13 43 6 63 63 SSE 13 20 30.39 1029 10 16.0934 N/A
10:36 am 10:36 Sunny 57 14 43 6 59 59 S 12 19 30.39 1029 10 16.0934 N/A
10:57 am 10:57 Sunny 59 15 43 6 55 55 S 13 20 30.36 1028 10 16.0934 N/A
11:16 am 11:16 Sunny 61 16 45 7 55 55 SSE 10 17 30.36 1028 10 16.0934 N/A
11:36 am 11:36 Sunny 63 17 45 7 52 52 S 13 20 30.36 1028 10 16.0934 N/A
11:57 am 11:57 Sunny 63 17 45 7 52 52 S 10 17 30.36 1028 10 16.0934 N/A
12:16 pm 12:16 Sunny 64 18 45 7 49 49 S 9 15 30.36 1028 10 16.0934 N/A
12:36 pm 12:36 Sunny 66 19 46 8 49 49 SSW 9 15 30.36 1028 10 16.0934 N/A
12:57 pm 12:57 Sunny 66 19 46 8 49 49 S 9 15 30.36 1028 10 16.0934 N/A
1:16 pm 13:16 Sunny 66 19 46 8 49 49 S 6 9 30.33 1027 10 16.0934 N/A
1:36 pm 13:36 Sunny 68 20 46 8 46 46 S 7 11 30.33 1027 10 16.0934 N/A
1:57 pm 13:57 Sunny 70 21 46 8 43 43 S 10 17 30.33 1027 10 16.0934 N/A
2:16 pm 14:16 Sunny 70 21 46 8 43 43 S 7 11 30.33 1027 10 16.0934 N/A
2:36 pm 14:36 Sunny 70 21 46 8 43 43 SSW 7 11 30.3 1026 10 16.0934 N/A
2:57 pm 14:57 Sunny 70 21 48 9 46 46 S 7 11 30.3 1026 10 16.0934 N/A
3:16 pm 15:16 Sunny 70 21 46 8 43 43 SSW 5 7 30.3 1026 10 16.0934 N/A
3:57 pm 15:57 Sunny 72 22 46 8 41 41 SSW 7 11 30.3 1026 10 16.0934 N/A
4:16 pm 16:16 Sunny 72 22 46 8 41 41 N N/A 30.27 1025 10 16.0934 N/A
4:37 pm 16:37 Sunny 72 22 46 8 41 41 WSW 5 7 30.27 1025 10 16.0934 N/A
4:57 pm 16:57 Sunny 72 22 46 8 41 41 N N/A 30.27 1025 10 16.0934 N/A
5:16 pm 17:16 Sunny 72 22 46 8 41 41 W 3 6 30.27 1025 10 16.0934 N/A
5:37 pm 17:37 Sunny 72 22 46 8 41 41 SSW 7 11 30.27 1025 10 16.0934 N/A
5:57 pm 17:57 Sunny 72 22 46 8 41 41 N N/A 30.27 1025 10 16.0934 N/A
6:16 pm 18:16 Sunny 70 21 45 7 40 40 SW 3 6 30.27 1025 10 16.0934 N/A
6:37 pm 18:37 Sunny 68 20 46 8 46 46 N N/A 30.27 1025 10 16.0934 N/A
6:56 pm 18:56 Sunny 66 19 48 9 52 52 N N/A 30.27 1025 10 16.0934 N/A
7:16 pm 19:16 Clear 63 17 46 8 56 56 N N/A 30.27 1025 10 16.0934 N/A
7:37 pm 19:37 Clear 59 15 48 9 68 68 N N/A 30.27 1025 10 16.0934 N/A
7:57 pm 19:57 Clear 59 15 48 9 68 68 SE 5 7 30.27 1025 10 16.0934 N/A
8:16 pm 20:16 Clear 59 15 48 9 68 68 SE 5 7 30.27 1025 10 16.0934 N/A
8:37 pm 20:37 Clear 61 16 48 9 63 63 SE 8 13 30.27 1025 10 16.0934 N/A
8:56 pm 20:56 Clear 59 15 48 9 68 68 SE 7 11 30.27 1025 10 16.0934 N/A
9:16 pm 21:16 Clear 59 15 48 9 68 68 SE 7 11 30.27 1025 10 16.0934 N/A
9:37 pm 21:37 Clear 57 14 48 9 72 72 SE 7 11 30.3 1026 10 16.0934 N/A
9:56 pm 21:56 Clear 57 14 48 9 72 72 SSE 5 7 30.3 1026 10 16.0934 N/A
10:17 pm 22:17 Clear 57 14 48 9 72 72 SSE 6 9 30.3 1026 10 16.0934 N/A
10:37 pm 22:37 Clear 57 14 48 9 72 72 SE 5 7 30.3 1026 10 16.0934 N/A
10:56 pm 22:56 Clear 57 14 48 9 72 72 SE 6 9 30.3 1026 10 16.0934 N/A
11:17 pm 23:17 Clear 57 14 48 9 72 72 SE 6 9 30.3 1026 10 16.0934 N/A
11:37 pm 23:37 Clear 57 14 48 9 72 72 SSE 5 7 30.3 1026 10 16.0934 N/A
11:56 pm 23:56 Clear 57 14 48 9 72 72 SE 5 7 30.3 1026 10 16.0934 N/A

Powered by AerisWeather